Home > Time Zones > World Clock > Weather > India > Theni > Past weeks

Flag for India Weather past 2 weeks in Theni, Tamil Nadu, India

Now
77 °F

Partly cloudy.


Feels Like: 79 °F
Forecast: 71 / 79 °F
Wind: No wind

Location: Coimbatore / Peelamedu

Current Time: Dec 28, 2014 at 9:22:18 PM

Latest Report: Dec 28, 2014 at 8:30 PM


Visibility: 2 mi

Pressure: 29.95 "Hg

Humidity: 69%

Dew point: 66 °F

Location of TheniLocation

Historic Weather in Theni — Graph

°F

Theni temperature yesterday

Maximum temperature yesterday: 82 °F (at 2:30 PM)
Minimum temperature yesterday: 68 °F (at 5:30 AM)
Average temperature yesterday: 76 °F

Past Weeks' High & Low Weather Summary

 TemperatureHumidityPressure
High88 °F (Dec 16, 1:30 PM)94% (Dec 15, 7:30 AM)30.09 "Hg (Dec 15, 7:30 AM)
Low66 °F (Dec 26, 7:00 AM)42% (Dec 26, 5:30 PM)29.83 "Hg (Dec 21, 4:00 PM)
Average77 °F71%29.96 "Hg
* Reported Dec 13 7:30 PM — Dec 28 8:00 PM, Theni, Weather by CustomWeather, © 2014

Note: Actual official high and low records may vary slightly from our data, if they occured in-between our weather recording intervals... More about our weather records

Advertising

Theni weather history for previous 24 hours

 ConditionsComfort  
Time TempWeatherWind HumidityBarometerVisibility
8:00 PM
Dec 28
77 °FPartly cloudy.No wind74%29.95 "Hg2 mi
7:30 PM77 °FPartly cloudy.3 mph74%29.92 "Hg2 mi
7:00 PM77 °FPartly cloudy.3 mph74%29.92 "Hg2 mi
6:30 PM79 °FBroken clouds.No wind65%29.92 "Hg2 mi
5:00 PM79 °FBroken clouds.5 mph65%29.89 "Hg2 mi
4:30 PM81 °FBroken clouds.6 mph58%29.89 "Hg2 mi
4:00 PM81 °FBroken clouds.7 mph58%29.89 "Hg2 mi
3:00 PM81 °FBroken clouds.5 mph58%29.89 "Hg2 mi
2:30 PM81 °FBroken clouds.6 mph58%29.89 "Hg2 mi
2:00 PM79 °FBroken clouds.7 mph61%29.92 "Hg2 mi
1:30 PM79 °FBroken clouds.7 mph61%29.92 "Hg2 mi
1:00 PM79 °FBroken clouds.7 mph65%29.95 "Hg2 mi
12:30 PM79 °FBroken clouds.8 mph61%29.95 "Hg2 mi
12:00 PM77 °FBroken clouds.10 mph65%29.98 "Hg2 mi
11:30 AM77 °FPartly sunny.9 mph65%29.98 "Hg2 mi
10:30 AM77 °FPartly sunny.12 mph65%30.01 "Hg1 mi
10:00 AM75 °FPartly sunny.9 mph65%30.01 "Hg1 mi
9:00 AM73 °FPartly sunny.8 mph69%30.01 "Hg1 mi
8:30 AM73 °FPartly sunny.7 mph69%30.01 "Hg1 mi
8:00 AM72 °FFog.5 mph73%29.98 "Hg1 mi
7:30 AM70 °FFog.2 mph83%29.95 "Hg1 mi
7:00 AM70 °FFog.3 mph83%29.95 "Hg1 mi
6:00 AM70 °FFog.No wind83%29.92 "Hg1 mi
5:30 AM70 °FFog.No wind83%29.92 "Hg2 mi
4:30 AM70 °FFog.No wind83%29.89 "Hg2 mi
4:00 AM70 °FFog.No wind83%29.89 "Hg2 mi
3:30 AM70 °FFog.No wind83%29.89 "Hg2 mi
3:00 AM70 °FFog.No wind83%29.89 "Hg2 mi
1:30 AM72 °FHaze.No wind78%29.95 "Hg2 mi
12:30 AM72 °FHaze.No wind78%29.95 "Hg2 mi
11:30 PM
Dec 27
73 °FHaze.No wind69%29.95 "Hg2 mi
11:00 PM73 °FHaze.No wind69%29.95 "Hg2 mi
10:30 PM73 °FHaze.No wind69%29.98 "Hg2 mi
10:00 PM73 °FHaze.No wind69%29.95 "Hg2 mi
9:30 PM73 °FHaze.No wind69%29.95 "Hg2 mi
9:00 PM75 °FHaze.No wind61%29.95 "Hg2 mi
Weather by CustomWeather, © 2014

See weather overviewHow to use our weather pages